Other Public Products
Issued by NWS Charleston, SC

Home | Current Version | Previous Version | Text Only | Print | Product List | Glossary On
Versions: 1 2 3 4 5 6 7 8 9 10 11 12 13 14 15 16 17 18 19 20 21 22 23 24 25 26 27 28 29 30 31 32 33 34 35 36 37 38 39 40 41 42 43 44 45 46 47 48 49 50
000
FPUS82 KCHS 211427
OPUCHS

TEST...KCHS/KSAV Gateway Observations...TEST
National Weather Service Charleston SC
1000 AM EDT SAT OCT 21 2017

NOTE: "fair" indicates few or no clouds below 12,000 feet with no
significant weather and/or obstructions to visibility.

SCZ050-WAZ558-NCZ071-TXZ119-213-PAZ071-DCZ001-FLZ074-172-MI076-
NYZ176-178-MAZ016-IL014-TNZ027-NJZ106-GAZ044-MD014-211500-

...Gateway Observations for Charleston International...

CITY           SKY/WX    TMP DP  RH WIND       PRES   REMARKS
Chas Airport   MOSUNNY   69  60  73 NE7       30.30R
Seattle        LGT RAIN  45  43  93 E9        29.79F
Charlotte      PTSUNNY   64  54  69 NE5       30.34R
Dallas DFW     CLOUDY    73  69  87 S12       29.91R
Dallas Love    CLOUDY    73  68  84 S12       29.93R
Philladelphia  MOSUNNY   61  42  49 SW3       30.37R
Wash National  MOSUNNY   62  53  72 CALM      30.37R
Baltimore      MOSUNNY   63  49  60 CALM      30.36S
Miami          PTSUNNY   84  75  74 E20G28    30.06R HX  92
Detroit        PTSUNNY   57  53  86 S5        30.24R
Newark         MOSUNNY   64  40  41 CALM      30.34R
Laguardia      MOSUNNY   65  46  50 CALM      30.33S
J F K          MOSUNNY   68  42  38 CALM      30.34S
Boston Logan   MOSUNNY   63  40  42 SW5       30.28S
Ft. Lauderdale PTSUNNY   82  74  76 E23G30    30.06R
Chicago O`Hare CLOUDY    62  49  62 S16G24    30.07R
Chicago Midway PTSUNNY   63  50  62 S15G22    30.08R
Houston Bush   MOSUNNY   74  74 100 NE3       29.97R
Houston Hobby  MOSUNNY   80  73  79 SE6       29.96R
Nashville      CLOUDY    59  50  72 S3        30.25R
Atlanta        PTSUNNY   61  52  72 E6        30.31R

$$

GAZ044-118-TXZ119-213-NCZ071-DCZ001-MDZ014-506-PAZ021-071-NJZ106-
NYZ176-178-MAZ106-OHZ011-021-055-MIZ076-KYZ091-ILZ014-INZ047-
MNZ060-ONZ431-211500-

...Gateway Observations for Savannah International...

CITY           SKY/WX    TMP DP  RH WIND       PRES   REMARKS
Savannah Arpt  MOSUNNY   72  64  76 NE8       30.28R
Atlanta        PTSUNNY   61  52  72 E6        30.31R
Charlotte      PTSUNNY   64  54  69 NE5       30.34R
Dallas DFW     CLOUDY    73  69  87 S12       29.91R
Houston Bush   MOSUNNY   74  74 100 NE3       29.97R
Wash National  MOSUNNY   62  53  72 CALM      30.37R
Wash Dulles    MOSUNNY   58  49  72 CALM      30.37R
Baltimore      MOSUNNY   63  49  60 CALM      30.36S
Philadelphia   MOSUNNY   61  42  49 SW3       30.37R
Newark         MOSUNNY   64  40  41 CALM      30.34R
Laguardia      MOSUNNY   65  46  50 CALM      30.33S
J F K          MOSUNNY   68  42  38 CALM      30.34S
Boston         MOSUNNY   63  40  42 SW5       30.28S
Pittsburg      CLOUDY    53  47  79 CALM      30.31R
Akron          CLOUDY    57  45  64 SE6       30.30R
Cleveland      PTSUNNY   59  46  62 S9        30.30R
Cincinnati     MOSUNNY   61  54  77 S8        30.25R
Columbus       MOSUNNY   54  49  85 CALM      30.27F
Detroit        PTSUNNY   57  53  86 S5        30.24R
Chicago O`Hare CLOUDY    62  49  62 S16G24    30.07R
Minneapolis    LGT RAIN  61  59  93 S17       29.69S
Indianapolis   PTSUNNY   60  52  74 S9        30.21R
Toronto Canada PTSUNNY   59  52  77 S3        30.25F

$$




USA.gov is the U.S. government's official web portal to all federal, state and local government web resources and services.